Pipestone, MN

11:37 PM CDT on September 28, 2016 (GMT -0500)
Pipestone Municipal

Weather History for KPQN - March, 2013

Change the Weather History Date:

Sunday, March 31, 2013

  Actual Average Record
Temperature  
Mean Temperature 28 °F -  
Max Temperature 35 °F 45 °F 80 °F (2012)
Min Temperature 21 °F 28 °F 15 °F (2014)
Degree Days  
Heating Degree Days 37    
Moisture  
Dew Point 24 °F    
Average Humidity 75    
Maximum Humidity 100    
Minimum Humidity 44    
Precipitation  
Precipitation 0.00 in - - ()
Sea Level Pressure  
Sea Level Pressure 29.99 in    
Wind  
Wind Speed 13 mph (NNW)    
Max Wind Speed 21 mph    
Max Gust Speed 30 mph    
Visibility 9 miles    
Events      
Averages and records for this station are not official NWS values.
T = Trace of Precipitation, MM = Missing Value Source: NWS Daily Summary

Daily Weather History Graph

Daily Weather History Graph

Search for Another Location

Airport or City:

Trip Planner

Search our weather history database for the weather conditions in past years. The results will help you decide how hot, cold, wet, or windy it might be!

Date:

Astronomy

Mar. 31, 2013 Rise Set
Actual Time 7:07 AM CDT 7:51 PM CDT
Civil Twilight 6:38 AM CDT 8:20 PM CDT
Nautical Twilight 6:04 AM CDT 8:55 PM CDT
Astronomical Twilight 5:28 AM CDT 9:31 PM CDT
Moon 12:06 AM CDT (3/31) 9:47 AM CDT (3/31)
Length of Visible Light 13h 41m
Length of Day
12h 43m
Waning Gibbous, 77% of the Moon is Illuminated
Mar 31
Waning Gibbous
Apr 2
Last Quarter
Apr 10
New
Apr 18
First Quarter
Apr 25
Full

Hourly Weather History & Observations

Time (CDT) Temp. Windchill Dew Point Humidity Pressure Visibility Wind Dir Wind Speed Gust Speed Precip Events Conditions
12:13 AM 33.8 °F 27.0 °F 33.8 °F 100% 29.92 in 0.2 mi NNW 8.1 mph - N/A   Drizzle
12:33 AM 33.8 °F 24.3 °F 33.8 °F 100% 29.93 in 0.2 mi NNW 13.8 mph 18.4 mph N/A   Drizzle
12:53 AM 33.8 °F 23.2 °F 33.8 °F 100% 29.93 in 0.5 mi NNW 17.3 mph 24.2 mph N/A   Overcast
1:13 AM 33.8 °F 23.2 °F 33.8 °F 100% 29.93 in 2.0 mi NNW 17.3 mph 23.0 mph N/A   Overcast
1:33 AM 33.8 °F 23.9 °F 33.8 °F 100% 29.94 in 3.0 mi NNW 15.0 mph - N/A   Overcast
1:53 AM 33.8 °F 25.3 °F 33.8 °F 100% 29.93 in 5.0 mi NNW 11.5 mph - N/A   Overcast
2:13 AM 33.8 °F 25.3 °F 33.8 °F 100% 29.94 in 5.0 mi NW 11.5 mph - N/A   Overcast
2:33 AM 33.8 °F 26.4 °F 33.8 °F 100% 29.93 in 5.0 mi NW 9.2 mph - N/A   Overcast
2:53 AM 33.8 °F 25.8 °F 33.8 °F 100% 29.93 in 4.0 mi NW 10.4 mph - N/A   Overcast
3:13 AM 33.8 °F 26.4 °F 33.8 °F 100% 29.92 in 5.0 mi NW 9.2 mph - N/A   Overcast
3:33 AM 33.8 °F 26.4 °F 32.0 °F 93% 29.92 in 5.0 mi WNW 9.2 mph - N/A   Scattered Clouds
3:53 AM 33.8 °F 27.0 °F 32.0 °F 93% 29.91 in 7.0 mi WNW 8.1 mph - N/A   Scattered Clouds
4:13 AM 33.8 °F 26.4 °F 30.2 °F 87% 29.90 in 7.0 mi WNW 9.2 mph - N/A   Clear
4:33 AM 33.8 °F 27.0 °F 30.2 °F 87% 29.89 in 10.0 mi WNW 8.1 mph - N/A   Clear
4:53 AM 33.8 °F 27.0 °F 30.2 °F 87% 29.89 in 7.0 mi WNW 8.1 mph - N/A   Clear
5:13 AM 33.8 °F 26.4 °F 30.2 °F 87% 29.89 in 7.0 mi WNW 9.2 mph - N/A   Clear
5:33 AM 33.8 °F 25.8 °F 30.2 °F 87% 29.89 in 7.0 mi WNW 10.4 mph - N/A   Clear
5:53 AM 33.8 °F 24.8 °F 32.0 °F 93% 29.89 in 7.0 mi NW 12.7 mph 17.3 mph N/A   Clear
6:13 AM 33.8 °F 24.8 °F 32.0 °F 93% 29.89 in 10.0 mi NW 12.7 mph - N/A   Clear
6:33 AM 33.8 °F 25.3 °F 30.2 °F 87% 29.89 in 10.0 mi NW 11.5 mph 18.4 mph N/A   Clear
6:53 AM 33.8 °F 25.8 °F 28.4 °F 81% 29.89 in 10.0 mi NW 10.4 mph - N/A   Clear
7:13 AM 33.8 °F 24.8 °F 28.4 °F 81% 29.90 in 10.0 mi NW 12.7 mph - N/A   Clear
7:33 AM 32.0 °F 23.6 °F 28.4 °F 87% 29.90 in 10.0 mi NW 10.4 mph - N/A   Clear
7:53 AM 32.0 °F 24.2 °F 28.4 °F 87% 29.91 in 10.0 mi NW 9.2 mph - N/A   Clear
8:12 AM 32.0 °F 20.8 °F 28.4 °F 87% 29.92 in 10.0 mi NNW 17.3 mph 21.9 mph N/A   Scattered Clouds
8:33 AM 32.0 °F 20.8 °F 28.4 °F 87% 29.94 in 10.0 mi North 17.3 mph 27.6 mph N/A   Mostly Cloudy
8:53 AM 32.0 °F 22.1 °F 26.6 °F 80% 29.93 in 10.0 mi North 13.8 mph 26.5 mph N/A   Overcast
9:13 AM 32.0 °F 21.2 °F 28.4 °F 87% 29.94 in 10.0 mi NNW 16.1 mph 21.9 mph N/A   Overcast
9:53 AM 32.0 °F 19.8 °F 26.6 °F 80% 29.94 in 10.0 mi North 20.7 mph 28.8 mph N/A   Overcast
10:13 AM 33.8 °F 24.3 °F 26.6 °F 75% 29.95 in 10.0 mi North 13.8 mph 26.5 mph N/A   Overcast
10:33 AM 33.8 °F 23.9 °F 26.6 °F 75% 29.96 in 10.0 mi North 15.0 mph 25.3 mph N/A   Overcast
10:53 AM 33.8 °F 24.8 °F 26.6 °F 75% 29.96 in 10.0 mi North 12.7 mph 28.8 mph N/A   Mostly Cloudy
11:13 AM 33.8 °F 22.5 °F 24.8 °F 70% 29.96 in 10.0 mi North 19.6 mph 29.9 mph N/A   Mostly Cloudy
11:33 AM 33.8 °F 24.3 °F 26.6 °F 75% 29.97 in 10.0 mi North 13.8 mph 25.3 mph N/A   Mostly Cloudy
11:53 AM 33.8 °F 23.9 °F 26.6 °F 75% 29.97 in 10.0 mi North 15.0 mph 23.0 mph N/A   Overcast
12:13 PM 33.8 °F 23.9 °F 26.6 °F 75% 29.98 in 10.0 mi North 15.0 mph 21.9 mph N/A   Overcast
12:33 PM 33.8 °F 23.2 °F 24.8 °F 70% 29.99 in 10.0 mi North 17.3 mph 26.5 mph N/A   Overcast
12:53 PM 33.8 °F 23.5 °F 23.0 °F 65% 29.99 in 10.0 mi North 16.1 mph 25.3 mph N/A   Mostly Cloudy
1:13 PM 33.8 °F 23.2 °F 23.0 °F 65% 29.99 in 10.0 mi North 17.3 mph 23.0 mph N/A   Mostly Cloudy
1:33 PM 35.6 °F 25.5 °F 21.2 °F 56% 29.99 in 10.0 mi NNW 17.3 mph 25.3 mph N/A   Mostly Cloudy
1:53 PM 35.6 °F 26.6 °F 21.2 °F 56% 29.99 in 10.0 mi North 13.8 mph 26.5 mph N/A   Mostly Cloudy
2:13 PM 35.6 °F 26.6 °F 19.4 °F 52% 29.99 in 10.0 mi North 13.8 mph 25.3 mph N/A   Mostly Cloudy
2:33 PM 35.6 °F 26.2 °F 19.4 °F 52% 29.99 in 10.0 mi North 15.0 mph 29.9 mph N/A   Mostly Cloudy
2:53 PM 35.6 °F 25.9 °F 19.4 °F 52% 29.99 in 10.0 mi North 16.1 mph 28.8 mph N/A   Mostly Cloudy
3:13 PM 35.6 °F 26.6 °F 19.4 °F 52% 29.98 in 10.0 mi North 13.8 mph 23.0 mph N/A   Scattered Clouds
3:33 PM 35.6 °F 25.9 °F 15.8 °F 44% 29.99 in 10.0 mi North 16.1 mph 25.3 mph N/A   Clear
3:53 PM 35.6 °F 26.6 °F 21.2 °F 56% 29.99 in 10.0 mi North 13.8 mph 25.3 mph N/A   Scattered Clouds
4:13 PM 35.6 °F 26.2 °F 17.6 °F 48% 30.00 in 10.0 mi North 15.0 mph 23.0 mph N/A   Scattered Clouds
4:33 PM 33.8 °F 22.8 °F 17.6 °F 52% 30.01 in 10.0 mi NNE 18.4 mph 23.0 mph N/A   Clear
4:53 PM 33.8 °F 24.3 °F 14.0 °F 44% 30.01 in 10.0 mi North 13.8 mph 20.7 mph N/A   Clear
5:13 PM 32.0 °F 22.1 °F 15.8 °F 51% 30.01 in 10.0 mi North 13.8 mph 21.9 mph N/A   Scattered Clouds
5:33 PM 30.2 °F 21.9 °F 15.8 °F 55% 30.01 in 10.0 mi North 9.2 mph 23.0 mph N/A   Clear
5:53 PM 30.2 °F 19.8 °F 15.8 °F 55% 30.02 in 10.0 mi North 13.8 mph 20.7 mph N/A   Clear
6:13 PM 30.2 °F 18.5 °F 17.6 °F 60% 30.03 in 10.0 mi NNE 17.3 mph 23.0 mph N/A   Scattered Clouds
6:33 PM 28.4 °F 16.2 °F 15.8 °F 59% 30.04 in 10.0 mi North 17.3 mph 25.3 mph N/A   Scattered Clouds
6:53 PM 28.4 °F 17.5 °F 15.8 °F 59% 30.05 in 10.0 mi North 13.8 mph 18.4 mph N/A   Scattered Clouds
7:13 PM 28.4 °F 17.5 °F 15.8 °F 59% 30.06 in 10.0 mi North 13.8 mph 24.2 mph N/A   Scattered Clouds
7:33 PM 28.4 °F 19.1 °F 17.6 °F 64% 30.06 in 10.0 mi North 10.4 mph 19.6 mph N/A   Mostly Cloudy
7:53 PM 28.4 °F 17.0 °F 17.6 °F 64% 30.07 in 10.0 mi NNE 15.0 mph 19.6 mph N/A   Scattered Clouds
8:13 PM 26.6 °F 16.2 °F 17.6 °F 69% 30.08 in 10.0 mi North 11.5 mph 18.4 mph N/A   Clear
8:33 PM 26.6 °F 15.7 °F 17.6 °F 69% 30.09 in 10.0 mi North 12.7 mph 21.9 mph N/A   Clear
8:54 PM 24.8 °F 12.4 °F 17.6 °F 74% 30.10 in 10.0 mi North 15.0 mph - N/A   Clear
9:13 PM 24.8 °F 14.0 °F 17.6 °F 74% 30.11 in 10.0 mi North 11.5 mph 21.9 mph N/A   Clear
9:33 PM 24.8 °F 14.0 °F 17.6 °F 74% 30.12 in 10.0 mi North 11.5 mph 19.6 mph N/A   Clear
9:54 PM 24.8 °F 14.0 °F 17.6 °F 74% 30.13 in 10.0 mi North 11.5 mph - N/A   Clear
10:13 PM 24.8 °F 14.6 °F 15.8 °F 69% 30.14 in 10.0 mi North 10.4 mph 19.6 mph N/A   Clear
10:33 PM 24.8 °F 14.6 °F 15.8 °F 69% 30.15 in 10.0 mi North 10.4 mph 18.4 mph N/A   Mostly Cloudy
10:54 PM 23.0 °F 10.1 °F 15.8 °F 74% 30.15 in 10.0 mi North 15.0 mph 20.7 mph N/A   Scattered Clouds
11:13 PM 23.0 °F 10.6 °F 15.8 °F 74% 30.15 in 10.0 mi North 13.8 mph 19.6 mph N/A   Mostly Cloudy
11:33 PM 21.2 °F 7.8 °F 14.0 °F 74% 30.16 in 10.0 mi North 15.0 mph 23.0 mph N/A   Scattered Clouds
11:53 PM 21.2 °F 7.3 °F 14.0 °F 74% 30.16 in 10.0 mi North 16.1 mph 23.0 mph N/A   Scattered Clouds